• In Moldova, Republic
  • List of Countries
  • For 7 days
  • Water Temperature
  • Satellite Maps
  • Weather Map
  • Weather Widgets
  • user-avatar
    Login

    Hourly Weather Townsville

    Today, 21 February, Tuesday

    Time Temperature Precipitation Wind Pressure Humidity
    00:00 +27°C° 0 mm 2 mps 751 mmHg 87%
    01:00 +27°C° 0 mm 2 mps 751 mmHg 88%
    02:00 +27°C° 0.3 mm 2 mps 751 mmHg 89%
    03:00 +27°C° 0.3 mm 1 mps 751 mmHg 90%
    04:00 +27°C° 0 mm 1 mps 750 mmHg 91%
    05:00 +27°C° 0.5 mm 1 mps 751 mmHg 89%
    06:00 +28°C° 0.5 mm 1 mps 751 mmHg 88%
    07:00 +28°C° 0.5 mm 1 mps 752 mmHg 86%
    08:00 +29°C° 0.9 mm 1 mps 752 mmHg 80%
    09:00 +31°C° 0.9 mm 1 mps 752 mmHg 74%
    10:00 +32°C° 0 mm 1 mps 753 mmHg 69%
    11:00 +32°C° 0.6 mm 2 mps 752 mmHg 67%
    12:00 +34°C° 0.6 mm 3 mps 752 mmHg 65%
    13:00 +34°C° 0.6 mm 3 mps 752 mmHg 64%
    14:00 +34°C° 0.4 mm 3 mps 752 mmHg 68%
    15:00 +33°C° 0.4 mm 3 mps 751 mmHg 72%
    16:00 +31°C° 0.4 mm 3 mps 751 mmHg 76%
    17:00 +30°C° 0.1 mm 3 mps 751 mmHg 79%
    18:00 +29°C° 0.1 mm 3 mps 752 mmHg 83%
    19:00 +28°C° 0.1 mm 3 mps 752 mmHg 87%
    20:00 +27°C° 0.1 mm 3 mps 752 mmHg 89%
    21:00 +27°C° 0.1 mm 3 mps 753 mmHg 90%
    22:00 +27°C° 0.1 mm 3 mps 753 mmHg 92%
    23:00 +27°C° 0 mm 3 mps 753 mmHg 93%

    Tomorrow, 22 February, Wednesday

    Time Temperature Precipitation Wind Pressure Humidity
    00:00 +26°C° 0 mm 3 mps 752 mmHg 93%
    01:00 +26°C° 0 mm 2 mps 752 mmHg 94%
    02:00 +26°C° 0 mm 2 mps 752 mmHg 94%
    03:00 +26°C° 0 mm 2 mps 752 mmHg 93%
    04:00 +26°C° 0 mm 2 mps 752 mmHg 93%
    05:00 +26°C° 0 mm 2 mps 752 mmHg 92%
    06:00 +27°C° 0 mm 2 mps 752 mmHg 91%
    07:00 +27°C° 0 mm 1 mps 753 mmHg 90%
    08:00 +28°C° 0.2 mm 2 mps 753 mmHg 84%
    09:00 +29°C° 0.2 mm 2 mps 753 mmHg 78%
    10:00 +31°C° 0.2 mm 3 mps 753 mmHg 72%
    11:00 +31°C° 0.5 mm 3 mps 753 mmHg 73%
    12:00 +31°C° 0.5 mm 3 mps 752 mmHg 73%
    13:00 +31°C° 0.5 mm 3 mps 752 mmHg 73%
    14:00 +31°C° 1.2 mm 3 mps 751 mmHg 75%
    15:00 +30°C° 1.2 mm 3 mps 751 mmHg 77%
    16:00 +30°C° 1.2 mm 3 mps 751 mmHg 79%
    17:00 +29°C° 1.2 mm 3 mps 751 mmHg 83%
    18:00 +28°C° 1.2 mm 3 mps 751 mmHg 86%
    19:00 +27°C° 1.2 mm 4 mps 751 mmHg 90%
    20:00 +27°C° 1.2 mm 4 mps 752 mmHg 91%
    21:00 +27°C° 1.2 mm 4 mps 753 mmHg 92%
    22:00 +27°C° 1.2 mm 4 mps 753 mmHg 93%
    23:00 +26°C° 0.6 mm 4 mps 753 mmHg 94%

    Day after tomorrow, 23 February, Thursday

    Time Temperature Precipitation Wind Pressure Humidity
    00:00 +26°C° 0.6 mm 4 mps 753 mmHg 95%
    01:00 +26°C° 0.6 mm 4 mps 753 mmHg 95%
    02:00 +26°C° 0.4 mm 4 mps 752 mmHg 96%
    03:00 +26°C° 0.4 mm 3 mps 752 mmHg 96%
    04:00 +25°C° 0.4 mm 3 mps 752 mmHg 96%
    05:00 +26°C° 0.3 mm 3 mps 752 mmHg 96%
    06:00 +26°C° 0.3 mm 4 mps 753 mmHg 95%
    07:00 +26°C° 0.3 mm 4 mps 753 mmHg 95%
    08:00 +27°C° 0.3 mm 4 mps 753 mmHg 87%
    09:00 +29°C° 0.3 mm 4 mps 754 mmHg 80%
    10:00 +32°C° 0.3 mm 4 mps 754 mmHg 73%
    11:00 +33°C° 0.4 mm 4 mps 753 mmHg 69%
    12:00 +34°C° 0.4 mm 4 mps 753 mmHg 65%
    13:00 +34°C° 0.4 mm 4 mps 752 mmHg 61%
    14:00 +34°C° 0.6 mm 4 mps 752 mmHg 64%
    15:00 +34°C° 0.6 mm 5 mps 751 mmHg 67%
    16:00 +33°C° 0.6 mm 5 mps 751 mmHg 71%
    17:00 +32°C° 0.7 mm 5 mps 751 mmHg 76%
    18:00 +29°C° 0.7 mm 4 mps 752 mmHg 82%
    19:00 +28°C° 0.7 mm 4 mps 752 mmHg 87%
    20:00 +28°C° 0.3 mm 4 mps 752 mmHg 88%
    21:00 +27°C° 0.3 mm 4 mps 753 mmHg 89%
    22:00 +27°C° 0.3 mm 5 mps 754 mmHg 90%
    23:00 +26°C° 0.7 mm 5 mps 753 mmHg 91%

    24 February, Friday

    Time Temperature Precipitation Wind Pressure Humidity
    00:00 +26°C° 0.7 mm 5 mps 753 mmHg 93%
    01:00 +26°C° 0.7 mm 5 mps 753 mmHg 94%
    02:00 +26°C° 1.9 mm 5 mps 752 mmHg 95%
    03:00 +25°C° 1.9 mm 4 mps 752 mmHg 97%
    04:00 +25°C° 1.9 mm 4 mps 752 mmHg 98%
    05:00 +25°C° 1.7 mm 5 mps 752 mmHg 97%
    06:00 +26°C° 1.7 mm 5 mps 753 mmHg 96%
    07:00 +26°C° 1.7 mm 5 mps 753 mmHg 96%
    08:00 +28°C° 1.3 mm 5 mps 754 mmHg 87%
    09:00 +29°C° 1.3 mm 6 mps 754 mmHg 78%
    10:00 +32°C° 1.3 mm 6 mps 754 mmHg 69%
    11:00 +33°C° 0.7 mm 6 mps 753 mmHg 67%
    12:00 +33°C° 0.7 mm 6 mps 753 mmHg 66%
    13:00 +34°C° 0.7 mm 6 mps 752 mmHg 65%
    14:00 +34°C° 1.6 mm 6 mps 752 mmHg 67%
    15:00 +33°C° 1.6 mm 6 mps 751 mmHg 70%
    16:00 +33°C° 1.6 mm 6 mps 751 mmHg 73%
    17:00 +30°C° 1.9 mm 5 mps 751 mmHg 78%
    18:00 +29°C° 1.9 mm 5 mps 752 mmHg 83%
    19:00 +28°C° 1.9 mm 5 mps 752 mmHg 88%
    20:00 +27°C° 1 mm 5 mps 752 mmHg 90%
    21:00 +27°C° 1 mm 5 mps 753 mmHg 91%
    22:00 +27°C° 1 mm 5 mps 753 mmHg 93%
    23:00 +26°C° 0.4 mm 5 mps 753 mmHg 94%

    25 February, Saturday

    Time Temperature Precipitation Wind Pressure Humidity
    00:00 +26°C° 0.4 mm 4 mps 752 mmHg 95%
    01:00 +25°C° 0.4 mm 4 mps 752 mmHg 96%
    02:00 +25°C° 0.2 mm 4 mps 752 mmHg 96%
    03:00 +25°C° 0.2 mm 4 mps 751 mmHg 97%
    04:00 +23°C° 0.2 mm 4 mps 751 mmHg 98%
    05:00 +25°C° 0.2 mm 4 mps 751 mmHg 97%
    06:00 +25°C° 0.2 mm 4 mps 752 mmHg 96%
    07:00 +25°C° 0.2 mm 5 mps 752 mmHg 96%
    08:00 +27°C° 0.3 mm 5 mps 752 mmHg 88%
    09:00 +29°C° 0.3 mm 5 mps 753 mmHg 80%
    10:00 +30°C° 0.3 mm 5 mps 753 mmHg 72%
    11:00 +32°C° 0.4 mm 5 mps 752 mmHg 67%
    12:00 +33°C° 0.4 mm 5 mps 752 mmHg 62%
    13:00 +34°C° 0.4 mm 5 mps 751 mmHg 57%
    14:00 +34°C° 0.3 mm 5 mps 751 mmHg 58%
    15:00 +34°C° 0.3 mm 5 mps 750 mmHg 60%
    16:00 +34°C° 0.3 mm 5 mps 750 mmHg 61%
    17:00 +32°C° 0.7 mm 5 mps 750 mmHg 69%
    18:00 +29°C° 0.7 mm 5 mps 751 mmHg 78%
    19:00 +27°C° 0.7 mm 5 mps 751 mmHg 87%
    20:00 +27°C° 0.9 mm 5 mps 751 mmHg 88%
    21:00 +26°C° 0.9 mm 5 mps 752 mmHg 90%
    22:00 +26°C° 0.9 mm 5 mps 752 mmHg 91%
    23:00 +26°C° 0.2 mm 5 mps 751 mmHg 92%

    26 February, Sunday

    Time Temperature Precipitation Wind Pressure Humidity
    00:00 +25°C° 0.2 mm 4 mps 751 mmHg 93%
    01:00 +25°C° 0.2 mm 4 mps 751 mmHg 94%
    02:00 +25°C° 0 mm 4 mps 750 mmHg 95%
    03:00 +25°C° 0 mm 4 mps 750 mmHg 95%
    04:00 +23°C° 0 mm 4 mps 750 mmHg 96%
    05:00 +25°C° 0 mm 4 mps 751 mmHg 95%
    06:00 +25°C° 0 mm 4 mps 751 mmHg 95%
    07:00 +25°C° 0 mm 4 mps 752 mmHg 94%
    08:00 +27°C° 0 mm 4 mps 752 mmHg 84%
    09:00 +29°C° 0 mm 5 mps 752 mmHg 75%
    10:00 +32°C° 0 mm 5 mps 752 mmHg 65%
    11:00 +33°C° 0 mm 5 mps 751 mmHg 58%
    12:00 +34°C° 0 mm 6 mps 751 mmHg 52%
    13:00 +35°C° 0 mm 6 mps 750 mmHg 45%
    14:00 +35°C° 0 mm 6 mps 750 mmHg 48%
    15:00 +34°C° 0 mm 6 mps 750 mmHg 51%
    16:00 +34°C° 0 mm 7 mps 749 mmHg 53%
    17:00 +32°C° 0.2 mm 6 mps 750 mmHg 62%
    18:00 +29°C° 0.2 mm 6 mps 750 mmHg 71%
    19:00 +27°C° 0.2 mm 6 mps 751 mmHg 80%
    20:00 +27°C° 0.7 mm 6 mps 751 mmHg 83%
    21:00 +26°C° 0.7 mm 6 mps 752 mmHg 85%
    22:00 +26°C° 0.7 mm 6 mps 752 mmHg 87%
    23:00 +24°C° 0.1 mm 6 mps 752 mmHg 89%
    Show more